|
|
Asteroid 2018 CB1
(Preview)
Asteroid 2018 CB1 makes its closest approach to the Earth (0.0247 AU) at 04:29 UT, 15th February 2018.
|
Blobrana
|
0
|
146
|
|
|
|
|
Asteroid 2018 CC1
(Preview)
Asteroid 2018 CC1 makes its closest approach to the Earth (0.0361 AU) at 11:33 UT, 15th February 2018.
|
Blobrana
|
0
|
144
|
|
|
|
|
Asteroid 2018 CD3
(Preview)
Orbital elements:
2018 CD3 Earth MOID = 0.0004 AU
Epoch 2018 Mar. 23.0 TT = JDT 2458200.5 MPC
M 0.73545 (2000.0) P Q
n 0.58970961 Peri. 221.88074 -0.98836133 +0.14964593
a 1.4083499 Node 326.69627 -0.12296967 -0.89176108
e 0.3431147 Incl. 2.85505 -0.08955637 -0.42704599
P 1.67 H 28.5 G 0....
|
Blobrana
|
2
|
160
|
|
|
|
|
Asteroid 2018 CS2
(Preview)
Asteroid 2018 CS2 makes a close approach to the Earth (0.0377 AU) at 12:51 UT, 14th February 2018.
|
Blobrana
|
0
|
275
|
|
|
|
|
Asteroid 2018 CF3
(Preview)
Asteroid 2018 CF3 makes a close approach to the Earth (0.0283 AU) at 10:37 UT, 14th February 2018.
|
Blobrana
|
0
|
173
|
|
|
|
|
Asteroid 2018 CA2
(Preview)
Asteroid 2018 CA2 makes a close approach to the Earth (0.027 AU) at 20:27 UT, 13th February 2018.
|
Blobrana
|
0
|
221
|
|
|
|
|
Asteroid 2018 CH2
(Preview)
Asteroid 2018 CH2 makes a close approach to the Earth (0.005 AU) AT 17:49 UT, 12th February 2018.
|
Blobrana
|
0
|
215
|
|
|
|
|
Asteroid 2018 CX
(Preview)
Asteroid 2018 CX makes an Earth flyby (0.015 AU) at 21:04 UT, 11th February 2018.
|
Blobrana
|
0
|
349
|
|
|
|
|
Asteroid 2018 CB
(Preview)
Asteroid 2018 CB reaches magnitude +13.5 in the constellation Perseus at ~17:10 UT, 9th February 2018. Distance to Earth: 0.001 AU (0.299 lunar distances)
|
Blobrana
|
1
|
366
|
|
|
|
|
Asteroid 2007 AP11
(Preview)
Asteroid 378214 Sauron (2007 AP11) makes its closest approach to the Earth (0.705 AU) on the 8th February 2018.
|
Blobrana
|
0
|
208
|
|
|
|
|
Asteroid 2018 CC
(Preview)
The 13 - 29 meter wide asteroid 2018 CC will make a close approach to the Earth (0.0012 AU, 0.49 LD) at 20:11 UT ±00:01
|
Blobrana
|
0
|
404
|
|
|
|
|
Asteroid 2018 BP6
(Preview)
Asteroid 2018 BP6 will make a near-Earth flyby (0.0093 AU) at 10:02 UT, 5th February 2018.
|
Blobrana
|
0
|
227
|
|
|
|
|
Asteroid 2017 BG136
(Preview)
Asteroid 2017 BG136 will make a close approach (0.080 AU) at ~11:08 UT, 30th January 2018.
|
Blobrana
|
0
|
284
|
|
|
|
|
Asteroid 2018 BC
(Preview)
The 4 - 8 metre wide asteroid 2018 BC will make a close pass on the 19th January 2018.
|
Blobrana
|
1
|
358
|
|
|
|
|
Asteroid 2007 WM3
(Preview)
Asteroid 2007 WM3 will make a close approach (0.098 AU) on the 15th January 2018.
|
Blobrana
|
0
|
215
|
|
|